CAPE
121 214 1482 1201 2208 1549 578 572 601 426 429 196 116 171 393 563 796 700 863 774 479 284 593 1094 2474 2582 2359 2422 1917 1832 1705 1612 2041 1909 1918 1956 1961 2111 2432 2398 2275 2369 2629 2855 2161 2087 1866 1856 1891
1071 1389 1813 1352 1608 836 617 700 488 638 596 495 86 223 667 959 440 510 855 965 589 532 216 327 2732 2870 2636 2687 2531 2387 1718 1845 2410 2220 2001 1777 1779 1751 1922 1926 1964 2021 2095 2139 2560 2689 2198 2449 1738
455 1412 2591 1478 1104 803 702 570 516 486 535 296 320 289 895 614 492 599 822 1008 615 526 616 1170 2919 3023 2721 2941 2815 2704 2483 1982 1787 1437 1415 937 631 806 1670 1830 1884 1887 1895 1893 1954 2109 2425 2467 2730
852 2133 1798 331 551 627 462 471 503 504 578 432 404 716 755 526 664 676 903 869 624 785 1284 1947 2748 2841 2981 2634 2945 2899 2426 2185 1859 1437 899 684 443 388 555 1331 1727 1653 1678 1775 1751 1631 1562 1706 2142
552 1165 786 584 807 496 318 446 426 509 497 305 522 843 661 638 752 647 963 1096 851 935 1349 1581 2554 2406 2493 2783 2577 2724 2009 2022 1113 687 375 557 494 427 558 542 1047 1795 1820 1862 1870 1791 1626 1426 1328
799 677 484 495 372 339 449 562 527 519 522 429 743 956 806 726 712 721 878 1024 1004 1169 977 1352 2339 2531 2473 2411 2056 1931 1576 862 356 117 159 655 323 182 235 719 518 1102 1612 1753 1533 1759 1435 1425 1346
338 222 323 297 555 292 542 428 431 271 318 279 337 1158 840 760 808 892 793 946 1019 1026 1024 1222 1193 1866 1840 2090 1617 1551 1382 873 398 154 299 226 133 136 112 722 581 761 1190 1560 1381 1701 1683 1577 1491
280 154 104 127 111 267 217 1 211 208 368 525 415 1034 1035 795 764 851 857 727 959 790 866 1198 1228 1256 1517 1598 1612 1482 1468 984 427 382 326 150 126 88 110 267 558 678 1004 1301 1597 1487 1448 1597 1645
146 67 151 99 103 232 216 87 216 583 532 727 830 1090 986 711 729 785 819 907 932 1076 988 975 1017 1086 803 1009 1738 2078 1638 1343 745 437 517 149 27 132 79 83 360 619 942 1148 1401 1447 1841 1785 1761
59 26 25 72 103 103 165 137 341 789 542 818 1251 1118 940 633 760 748 772 909 858 984 851 924 908 963 880 1032 1912 2132 1956 1363 1766 932 838 334 37 0 8 41 175 384 783 1270 1191 1164 1685 2251 1748
24 23 22 14 25 39 169 362 375 493 268 548 1264 1373 855 702 711 668 624 750 852 989 928 874 1320 1349 996 1364 2235 2499 2261 1732 1541 1005 757 1196 1399 54 46 33 20 77 363 578 928 822 775 1438 2054
17 0 4 3 0 39 75 97 223 280 476 634 1074 1429 933 819 700 573 536 516 674 924 1032 1030 1164 1539 1790 1358 1676 1559 2370 2057 871 1515 909 1386 1307 1395 447 107 64 81 350 1036 622 933 1441 1467 2238
15 0 0 0 0 15 45 127 111 283 640 757 1275 1381 1062 863 626 581 586 699 715 1008 1113 1302 1435 1854 1722 3151 1664 1611 1770 1280 1151 1743 1463 959 656 1700 1344 638 542 441 1069 1007 290 427 917 1864 1657
0 0 1 0 0 5 9 32 173 240 466 951 1361 1367 1140 920 684 653 695 850 907 1098 1211 1276 1489 1954 1981 2022 2419 2446 1799 1741 1371 1111 2273 1674 1814 1507 2046 2378 1380 1348 1168 954 1143 487 1650 1469 767
0 3 11 1 0 2 0 50 72 320 513 968 1254 1410 1272 1139 981 816 828 973 1070 1147 1245 1486 1681 2116 2385 2898 2213 2374 2491 1442 1579 1744 1093 1585 1886 1609 1152 2048 2690 1357 1307 942 692 1482 1188 763 554
1 2 54 0 0 3 0 52 66 304 464 737 1068 1350 1351 1357 1212 1248 1126 1200 1262 1259 1414 1700 1668 1954 2190 2601 2303 2690 2392 1607 1975 1582 1305 1173 1444 1546 1941 1927 951 938 1914 487 958 760 461 420 742
0 46 0 2 0 0 0 7 60 0 175 350 851 1231 1323 1356 1457 1437 1446 1496 1556 1613 1702 1885 1895 1776 2538 3114 2962 2148 2361 1897 763 732 753 1193 1664 1581 1833 1368 2610 1883 1778 1595 1065 559 891 1034 1075
2 36 0 0 0 0 0 0 0 4 19 157 453 923 1279 1284 1431 1576 1509 1652 1607 1824 2154 2420 2364 2453 1676 1978 3350 2712 2829 2177 713 464 460 641 1367 1360 1316 2124 2592 1465 2010 1799 1989 2200 1707 1262 1362
0 0 0 0 0 0 0 0 0 0 0 0 139 606 1025 1291 1316 1604 1473 1567 1724 1871 2299 2687 2834 1523 0 439 2179 3271 2401 2715 1230 1132 1256 852 1233 1472 967 493 1889 1862 2547 1332 1291 1176 2170 1773 2021
0 0 0 0 0 0 0 0 0 0 0 0 20 483 733 1087 1364 1566 1652 1159 1644 2016 2437 3022 3006 2008 1040 1231 2466 2524 2270 1902 1668 2319 1467 1390 1440 858 642 224 669 1996 2457 2339 1848 2029 2216 2891 2239
0 0 0 0 0 0 0 7 0 10 95 106 67 414 517 940 1403 1720 1726 1448 1449 2014 2349 2855 3630 3646 2709 2791 2951 3160 2948 2846 2048 1964 1713 1804 1429 749 876 736 785 1155 1642 1400 2082 2125 1147 2405 1708
5 0 0 0 0 36 0 40 12 42 148 95 136 287 400 664 1134 1604 1743 1791 1654 1655 1773 2506 3179 3761 3676 3711 3418 3940 2698 2242 2723 1804 2374 2025 1790 1920 2006 1124 1155 1203 1100 897 2401 1953 1782 2521 2378
0 0 0 0 0 9 22 107 75 58 375 406 441 376 227 478 896 1221 1446 1886 2032 1640 1226 2097 3089 3661 4089 3646 3922 3865 3228 2086 2005 1807 2033 2697 2193 2085 1929 2062 2426 2892 1300 1059 1043 1598 2596 2542 1626
0 0 0 0 0 29 40 18 103 105 303 349 520 661 813 645 494 1106 1311 1388 2083 1904 1375 1564 2897 3407 3608 3479 3653 3892 3541 3009 1989 2094 2183 1847 1696 2016 2490 1998 2303 1610 1941 2646 2535 2674 2220 2132 1680
0 0 6 107 78 68 29 0 179 224 326 442 647 834 976 918 727 828 1345 1369 2010 2243 2080 1991 2602 3212 3567 3475 3643 3888 4162 3481 3109 2696 2091 2089 1782 1631 2576 3308 3020 2326 3013 2468 3195 3199 2732 2291 1728
21 6 18 186 121 64 37 115 266 182 236 532 780 1241 1277 1431 1533 1476 1564 1634 1954 2337 2523 2539 3129 3558 3351 3382 3750 4529 4004 3981 3343 3126 2384 1874 1344 1150 3048 2832 2409 2565 2337 2323 2213 1683 2260 2392 1777
29 6 16 5 55 23 112 77 34 71 131 520 794 1453 1567 1773 2050 2246 2325 2265 2345 2485 2672 2874 2983 3243 3766 3348 3668 3834 4162 3866 3890 4412 3680 2585 2564 1690 2317 2065 2162 2599 2485 2317 2897 1435 1444 2825 2485
0 3 44 125 209 308 130 144 432 338 83 483 613 1521 1719 1730 2321 2231 2128 2100 2367 2408 2631 2758 2762 3183 3092 3220 3093 2803 2948 3673 3735 3767 3454 3520 2810 2522 2533 2343 2050 2632 2588 2110 2506 2550 2369 2564 2699
0 0 13 47 56 159 219 102 116 110 267 323 440 1268 1612 2106 1642 1489 1377 1508 1791 1869 1760 1731 2083 2413 2628 2830 2595 1921 1828 2358 3129 3232 3634 3195 2930 3056 2850 3039 2534 2128 1987 2044 2363 1860 1642 2098 2571
0 3 12 141 110 206 112 186 215 180 102 280 320 748 1583 1830 1588 1289 1430 1475 1521 1451 1500 1546 1689 1678 2036 2307 3411 2879 3808 3393 2992 3149 3152 1999 674 2958 3459 2997 2672 2220 1544 1553 1345 1165 1644 1678 1832
CIN
-470 -320 -104 -83 -3 -28 -8 0 -12 -20 -2 0 -1 -1 0 -2 0 -1 0 0 -2 -29 -16 0 0 0 0 0 0 0 0 0 0 0 0 0 0 0 0 0 0 0 0 0 0 0 -4 -5 -7
-114 -83 -71 -24 -46 -17 -3 0 -1 -1 -1 -1 -6 -1 -1 -1 -21 -12 0 0 -2 -1 -26 -18 0 0 0 0 0 0 0 0 0 0 0 -1 0 -1 0 0 0 0 0 0 0 0 0 0 -3
-194 -71 -4 -6 -7 -5 -2 0 0 0 -1 -1 0 -2 0 -2 -6 -2 0 0 0 0 -1 -3 0 0 0 0 0 0 0 0 0 -2 -1 -10 -6 0 0 0 0 0 0 0 0 0 0 0 0
-58 -26 -4 -462 -5 0 0 -1 -2 -1 -1 -1 0 -5 -7 -2 0 -3 0 -2 0 -2 0 0 0 0 0 0 0 0 0 0 -1 0 -4 -23 -37 -24 -1 0 0 0 0 0 0 0 0 -1 0
-51 -1 -9 -1 -1 -1 0 0 0 -1 0 -1 0 -1 -11 -3 0 -5 0 0 0 -1 0 0 0 0 0 0 0 0 0 0 -18 -46 -42 -24 -34 -28 -30 -2 -2 0 0 0 0 0 0 -8 -13
-3 -1 -3 -1 0 -1 0 -1 -1 -1 0 0 -1 0 0 -8 -4 0 0 -1 -1 -6 0 0 0 0 0 0 0 0 0 -4 -46 -81 -66 -42 -30 -27 -40 -4 -6 -1 0 0 0 0 -1 -2 -8
-1 -17 -5 -5 0 -7 -1 -2 0 -9 -3 -3 0 0 -1 0 0 0 0 0 -3 -1 0 0 0 0 0 0 0 0 -1 -8 -36 -68 -41 -52 -45 -29 -21 0 -2 -3 -2 -1 0 0 0 0 -9
-8 -61 -89 -69 -65 -10 -9 -2 0 -1 -2 0 0 -12 -3 -1 -5 0 0 0 0 0 -2 0 0 0 0 0 0 0 0 -1 -25 -37 -27 -33 -23 -27 -13 -10 -3 -3 0 0 -1 0 -2 -1 -11
-49 0 -65 -105 -92 -27 -22 -65 0 -2 0 0 0 0 0 -17 -4 0 0 0 0 0 0 0 0 0 0 0 0 0 0 0 -3 -11 -3 -18 -67 -40 -24 -34 -1 -1 0 0 0 0 0 -2 -8
-1 0 0 -93 -94 -91 -29 -20 -1 -1 -1 0 0 0 -9 -14 -1 0 0 0 0 -1 0 0 0 0 0 -2 0 0 0 0 -1 -8 0 0 -22 0 -14 -10 0 -5 0 0 -5 -11 -12 -6 -1
0 0 0 0 0 -1 -6 -1 -1 -7 0 0 -1 -15 -23 -12 -1 0 0 0 0 0 0 0 0 -2 -39 -30 -4 0 0 -5 -11 -1 -10 0 0 -25 -24 -17 -25 -21 -6 -13 -9 -14 -19 -17 -19
0 0 0 0 0 -1 -1 -2 -2 0 -1 0 -4 -26 -31 -21 -9 -1 0 -4 -7 -6 0 0 0 -1 -2 -52 -12 -1 0 -3 -24 -9 0 -1 0 0 0 0 -2 -6 0 -1 0 -2 -1 -2 -9
0 0 0 0 0 0 0 -1 -5 0 -1 0 -11 -36 -34 -27 -18 -1 0 0 -1 0 0 0 0 0 0 -2 -1 -25 -10 -55 -18 -4 -3 0 0 0 -4 0 0 -2 -7 -10 0 0 0 -13 -11
0 0 0 0 0 0 0 -1 -5 -2 0 -5 -14 -18 -22 -13 -17 -1 0 0 0 0 0 0 0 0 0 0 0 -10 -17 -4 -42 -17 0 0 0 0 0 0 0 0 -14 -35 -1 -1 -5 -1 0
0 0 0 0 0 0 0 -6 -4 -2 -3 0 -1 -7 -7 -6 -5 -15 -11 -1 0 0 0 0 0 0 0 -4 -5 0 -6 -59 -35 -17 -17 0 -1 -6 0 -2 0 0 0 -46 -1 0 0 0 0
0 0 0 0 0 -1 0 -4 -1 -3 -7 0 0 0 -11 -4 -1 -9 -6 0 -1 0 0 0 0 -1 0 0 -1 -10 -3 -55 -19 -25 -10 -19 0 0 0 -5 -3 -4 -19 -1 -5 0 -1 -1 0
0 -2 0 0 0 0 0 0 -6 0 -4 0 0 0 -4 -10 -2 -10 -2 0 0 0 0 0 0 -1 -12 -2 0 -2 -21 -37 -141 -113 -67 -4 0 0 -3 -2 0 0 0 0 0 -2 -1 -1 -9
0 0 0 0 0 0 0 0 0 0 -1 -5 0 0 0 -3 -12 -12 -9 -1 0 0 -1 0 0 -32 -122 -108 0 0 -4 -10 -115 -131 -110 -57 -7 -9 0 0 0 -25 -1 0 -2 -2 -14 -3 -9
0 0 0 0 0 0 0 0 0 0 0 0 -9 0 0 0 -8 -8 -24 -6 0 0 0 0 0 -131 0 -235 -7 0 0 0 -34 -37 -39 -51 0 -11 -16 -52 -2 0 -3 -1 -17 0 0 0 -4
0 0 0 0 0 0 0 0 0 0 0 0 -3 -9 -1 0 -3 -21 -38 -33 -19 -1 0 0 -7 -83 -210 -169 -4 -16 -32 -21 -3 0 -26 -2 0 -34 -30 -75 -43 -4 -3 0 -11 0 -3 0 -9
0 0 0 0 0 0 0 0 0 -17 -10 -15 -18 -13 -7 -1 0 -22 -32 -39 -22 -15 -11 -1 -3 -7 -40 -18 -24 -2 -2 -12 -7 -6 -2 0 -29 -54 -36 -43 -29 -28 -19 -24 -2 0 -24 -2 -4
0 0 0 0 0 0 0 -37 -13 -15 -1 -2 -6 -1 0 0 -6 -7 -14 -18 -31 -40 -45 -34 -1 0 -1 0 -1 0 0 -2 -2 0 -1 -25 -3 -8 -1 -20 -30 -16 -40 -35 -5 -3 -4 0 -3
0 0 0 0 0 0 -3 -5 -1 -4 0 0 0 -2 0 0 -1 0 -18 -1 -21 -27 -92 -45 -12 0 0 0 0 -2 -1 0 0 -1 -5 -1 -2 0 0 0 -1 0 -10 -33 -43 -17 -2 -18 -1
0 0 0 0 0 -1 -4 -13 -79 -67 -3 0 -1 -1 -7 -1 0 -1 -3 -16 -15 -20 -90 -74 -23 -10 -4 -2 -4 0 0 0 0 0 0 -1 -16 -1 -6 0 -2 -16 -13 -2 0 0 -1 0 -1
0 0 -1 0 0 -27 -2 0 -6 0 0 0 -3 0 -9 -6 -3 -5 -9 -18 -33 -15 -7 -3 -9 -13 -14 -14 -1 0 0 0 0 0 0 0 -24 -22 -38 -1 0 0 0 0 0 0 0 0 0
0 0 -6 -1 -3 -14 -1 0 -16 -4 -5 0 0 0 -7 -12 -16 -28 -29 -26 -29 -27 -11 -2 -1 -3 -5 -4 0 0 0 0 0 0 -1 0 -1 -2 -8 -5 0 0 0 0 0 -19 -6 -1 0
0 -7 -2 0 0 -6 -1 -1 -4 -11 0 0 0 0 -1 0 -18 -44 -63 -58 -47 -43 -10 -3 0 0 0 0 0 0 0 0 -1 -1 0 0 -7 -7 -2 0 -2 0 0 0 0 0 -5 -1 0
0 -5 -1 -1 -1 0 -9 0 0 -1 -14 -1 0 -1 0 -15 -46 -91 -109 -84 -44 -36 -8 -1 0 0 -4 0 0 -2 -13 0 0 0 0 0 0 0 0 -4 0 0 0 0 0 0 0 0 -1
0 0 -1 0 -1 0 0 -7 -5 -17 -18 -15 0 -2 0 -1 -52 -109 -133 -128 -91 -53 -47 -17 -4 0 0 0 -5 -38 -31 -7 -2 0 0 0 0 0 0 0 0 0 0 0 0 0 0 0 0
0 0 -1 0 -2 -1 0 0 -30 -34 -23 -23 -12 0 0 0 -2 -60 -67 -77 -81 -90 -73 -48 -30 -56 -3 0 0 -1 -8 -1 -1 0 -1 -36 -122 -2 0 0 0 0 0 0 -1 -1 0 0 0
Wind_Speed
9 11 8 5 6 4 9 10 15 5 6 14 7 14 17 17 12 6 21 18 23 21 18 17 15 15 18 16 16 17 16 15 15 14 14 14 14 12 13 14 14 14 13 14 14 14 13 13 12
15 3 7 5 3 1 7 12 12 14 11 9 10 3 16 16 11 19 15 22 21 19 18 18 14 15 19 17 17 16 16 15 14 13 13 12 11 11 11 11 12 12 12 11 11 12 12 12 11
13 7 10 5 5 5 6 12 9 8 8 8 9 13 12 12 19 14 19 22 18 18 16 18 15 16 19 18 17 18 17 16 15 13 13 15 13 10 7 9 9 10 10 10 10 9 9 10 9
7 7 7 6 13 10 10 6 6 8 11 6 6 16 10 18 11 19 20 23 16 14 17 16 16 16 16 17 18 17 19 18 17 17 15 15 14 11 12 3 6 7 8 8 9 8 7 6 6
12 9 4 8 13 8 8 6 5 9 7 15 15 17 17 10 16 20 19 23 18 15 18 17 15 16 15 16 17 17 17 18 21 21 20 14 12 11 7 8 2 5 5 5 6 6 4 4 4
9 4 3 9 11 7 8 3 3 8 6 15 18 16 12 12 20 18 15 23 18 15 19 17 15 15 16 16 17 17 18 17 16 17 17 17 12 6 7 9 7 3 1 3 3 3 3 2 2
4 4 9 8 12 11 8 7 11 6 8 12 5 16 12 16 18 18 15 15 23 19 18 16 15 14 16 15 16 17 18 17 15 16 17 16 16 4 10 10 8 6 4 2 2 2 2 2 2
6 3 10 7 14 14 4 11 4 11 12 4 6 6 16 19 19 16 17 15 16 16 13 16 15 15 14 14 16 17 17 16 14 15 17 16 15 13 16 11 11 6 5 4 3 3 3 3 3
9 4 8 13 12 12 4 11 8 2 8 9 2 11 20 22 20 17 15 14 13 15 15 16 16 15 14 14 14 15 17 17 16 15 16 16 6 8 14 14 11 7 7 6 4 4 5 6 7
8 8 9 7 13 10 7 8 2 3 6 12 12 13 19 22 19 17 16 16 15 13 14 14 15 14 11 10 14 12 11 10 10 10 14 10 12 9 12 16 12 11 9 10 9 9 10 10 7
8 8 7 6 10 5 6 7 3 6 14 12 13 14 18 20 18 18 16 16 14 13 11 14 11 12 12 3 9 6 5 5 5 13 6 9 8 10 10 7 10 10 14 9 13 12 9 3 5
12 8 5 4 5 2 5 4 7 7 7 9 15 17 18 18 18 18 16 16 15 15 13 14 11 8 8 9 7 9 8 6 2 7 13 7 5 8 9 8 11 9 8 9 8 4 2 5 4
8 5 5 7 1 1 6 0 6 3 8 11 16 16 17 16 17 16 15 16 15 15 13 11 13 11 9 4 3 7 7 7 6 5 8 9 10 7 6 9 8 5 7 6 6 6 5 2 9
2 2 5 5 4 1 3 3 2 10 10 13 15 16 16 16 16 15 14 14 15 15 15 13 12 12 10 8 7 5 6 11 9 5 8 12 9 8 8 6 8 7 6 7 8 7 4 8 8
7 11 4 8 6 4 6 10 6 10 9 12 13 14 15 15 16 16 15 14 15 14 15 13 14 14 11 9 11 7 2 7 8 6 7 10 10 3 8 7 6 9 8 10 6 4 5 8 8
10 8 3 10 2 6 10 1 12 11 7 12 13 13 13 16 17 15 16 14 15 14 13 13 12 12 14 10 8 3 4 5 6 5 4 7 8 9 7 4 5 7 4 7 8 7 8 8 8
6 7 5 5 3 5 4 10 6 4 8 7 11 16 13 14 16 15 16 15 16 13 14 14 13 11 6 9 6 8 5 8 4 3 4 6 8 7 3 6 5 7 5 5 5 7 6 7 5
9 8 5 2 4 8 11 7 6 7 11 9 9 13 15 15 16 17 15 16 14 15 14 14 11 5 4 5 5 6 4 5 5 5 7 6 6 5 6 6 7 5 7 5 7 5 4 7 3
5 9 9 4 3 5 11 10 8 7 3 8 9 12 17 16 15 16 16 14 15 14 15 13 14 9 3 3 8 6 7 7 8 7 8 9 8 5 1 4 9 9 5 9 7 9 6 6 5
10 8 6 3 3 8 9 8 5 4 3 3 6 11 15 16 17 16 17 14 14 15 15 15 14 14 9 8 10 6 6 10 9 8 8 10 10 7 5 6 8 10 4 9 5 6 3 5 1
15 2 10 11 10 14 8 9 9 8 4 6 5 10 13 15 17 17 18 17 16 14 14 16 15 16 15 15 8 6 4 6 6 5 8 12 7 12 12 11 11 9 6 5 6 5 6 6 4
15 10 8 10 13 5 2 3 10 10 12 10 12 12 13 14 16 17 18 18 16 15 12 14 15 15 14 15 12 9 8 7 7 6 5 5 11 11 15 13 11 11 4 5 5 8 7 7 5
12 7 8 9 13 13 9 6 8 15 12 8 7 3 6 14 16 16 16 17 17 14 12 14 14 14 13 13 12 9 9 7 6 8 9 7 8 10 11 9 11 10 8 9 7 8 9 6 8
10 10 15 12 12 9 5 6 3 7 9 6 4 2 2 6 6 13 15 14 15 16 13 12 13 12 12 10 12 11 9 9 6 7 6 8 9 11 12 13 9 10 9 11 9 11 10 8 6
10 18 10 10 8 6 7 8 10 9 9 9 5 7 6 1 5 5 9 13 13 14 16 14 13 10 10 9 10 11 11 9 8 7 9 9 9 5 13 11 9 10 9 10 9 9 10 8 8
14 16 8 6 7 9 6 4 5 6 5 7 6 11 7 8 7 7 3 6 11 10 10 10 11 10 10 10 11 9 10 8 9 11 9 10 8 7 5 11 11 11 13 11 10 5 6 9 10
9 9 10 12 8 7 2 7 8 9 6 7 6 13 8 10 11 10 8 1 2 6 7 6 7 7 8 9 8 9 9 11 9 6 10 9 8 7 3 7 8 10 12 12 11 10 8 10 8
15 11 7 5 2 8 7 4 10 7 5 7 6 10 9 8 9 8 7 6 3 2 5 6 5 7 8 8 9 8 5 12 10 12 9 10 8 8 6 8 10 9 10 12 11 10 11 10 7
10 13 9 9 9 8 9 8 7 5 7 4 6 9 5 9 7 6 7 6 6 6 5 0 4 5 7 9 8 9 9 11 11 12 10 10 9 9 10 9 11 11 11 11 11 12 12 12 9
12 15 11 9 6 9 7 4 11 8 7 5 5 4 9 7 6 4 7 6 7 5 6 5 7 4 7 8 9 15 12 9 9 11 12 7 6 8 12 9 11 9 12 9 9 12 12 13 12
Wind_Direction
207 216 244 244 268 224 55 45 78 112 30 72 50 15 61 44 41 82 141 130 133 134 137 143 138 137 140 132 137 134 127 122 112 106 102 95 97 97 97 101 104 101 96 109 106 108 111 116 120
241 196 236 265 234 241 71 82 45 53 65 72 50 166 93 62 94 123 128 136 135 132 150 141 137 135 138 140 138 137 137 127 114 107 100 90 88 95 96 97 99 101 103 103 99 115 112 120 125
260 227 262 223 91 73 63 57 52 75 52 35 99 38 22 94 112 126 122 130 138 141 139 122 138 137 144 142 144 144 145 132 116 97 95 91 56 33 82 94 96 103 108 107 103 102 105 120 121
219 199 234 174 43 43 86 74 88 77 76 69 106 94 79 113 126 120 139 124 137 126 124 131 141 142 147 148 148 149 152 142 134 115 97 88 88 53 349 55 110 108 107 109 109 108 111 116 122
231 262 223 60 96 50 50 35 32 54 50 38 83 89 115 92 116 137 145 138 143 127 130 138 142 146 150 154 151 151 149 144 132 126 114 90 86 78 350 321 322 119 114 112 107 107 109 110 111
255 257 115 83 93 131 79 24 24 82 93 127 119 111 106 124 135 142 155 138 137 152 144 136 141 147 151 159 159 157 158 151 146 145 120 109 88 93 283 321 304 295 154 116 106 123 132 123 129
331 53 61 99 93 64 61 354 30 48 20 57 172 103 127 144 147 150 162 145 151 167 144 150 158 154 155 160 163 167 170 170 160 145 142 137 131 189 240 291 302 280 270 228 163 159 179 162 200
263 234 104 73 76 75 61 79 68 15 63 120 329 183 153 148 157 159 149 157 147 137 144 158 157 166 171 165 174 177 177 170 165 156 158 155 147 201 219 261 259 265 266 258 223 221 237 224 223
229 51 71 70 100 103 147 94 75 43 84 62 333 72 146 147 159 162 152 153 148 151 166 162 161 169 181 174 176 186 181 180 172 170 171 169 161 210 222 237 259 285 267 261 258 253 249 238 231
71 61 65 68 82 96 97 70 67 190 136 109 90 95 133 155 163 164 171 157 169 167 172 163 168 171 179 174 161 188 186 187 181 194 174 198 182 211 229 238 234 253 257 255 248 244 242 232 216
45 59 91 78 53 63 95 133 237 156 42 65 124 139 155 159 169 170 175 166 175 176 184 161 161 172 148 205 163 179 195 183 211 184 173 195 190 202 217 228 232 234 221 241 211 222 234 131 292
106 69 36 41 86 140 46 70 77 24 70 67 109 146 161 168 176 175 178 168 175 182 195 157 171 166 211 158 176 187 183 189 176 228 190 198 190 216 202 211 219 221 253 212 248 254 259 210 231
4 44 126 128 261 277 78 296 18 153 126 108 123 154 164 176 177 179 182 168 178 179 188 171 168 171 206 154 200 183 186 143 219 232 205 196 204 206 213 223 233 233 269 278 236 248 282 273 267
83 269 295 115 126 225 289 321 277 113 134 128 143 157 170 179 178 179 191 179 179 180 181 185 183 173 205 207 205 237 177 178 167 223 216 211 207 206 193 218 217 220 222 268 239 216 258 229 257
285 258 185 72 50 328 311 227 175 103 150 150 161 168 171 181 176 179 189 187 181 181 180 192 189 170 195 177 207 230 272 126 154 153 276 219 231 176 216 207 202 220 214 228 243 225 213 274 239
246 237 266 95 276 120 277 334 113 135 175 163 175 166 175 181 179 185 185 184 174 188 182 193 189 180 182 203 196 192 236 90 118 124 200 269 226 212 201 228 192 236 268 191 222 199 229 231 234
209 150 42 133 146 297 227 318 109 158 163 202 173 167 185 178 189 186 181 190 172 197 175 188 184 185 158 187 181 230 210 127 154 161 223 235 261 223 235 238 194 233 246 266 274 222 243 206 224
48 337 69 284 50 329 296 269 251 228 171 189 187 178 185 182 193 181 194 188 194 177 178 193 168 130 98 10 215 210 248 151 179 214 211 217 239 243 238 241 267 175 247 211 247 266 287 290 288
304 289 318 313 350 280 290 298 264 268 254 190 194 185 181 187 185 177 187 187 194 184 185 187 162 171 184 164 231 211 209 190 200 213 197 199 227 203 273 319 274 226 179 242 206 223 205 241 234
294 276 286 10 32 264 258 288 327 44 20 280 209 186 187 185 179 180 190 171 202 190 183 182 189 189 208 196 224 202 206 191 200 197 191 216 216 129 206 236 270 262 229 237 228 214 199 243 161
270 328 7 329 295 244 257 227 168 115 131 129 203 176 183 183 188 191 191 178 194 187 190 192 192 187 196 209 218 235 255 131 214 177 209 207 161 178 211 206 227 238 233 226 230 240 215 225 266
294 27 331 309 293 359 214 210 139 142 108 102 144 175 174 195 203 191 194 193 193 176 189 192 196 190 195 205 215 195 206 203 208 225 197 190 215 198 211 204 202 219 205 235 216 240 220 255 213
300 5 295 292 276 266 205 93 280 164 105 103 100 81 190 192 195 200 203 190 202 182 173 187 187 195 207 199 235 200 220 206 180 206 191 205 232 213 224 207 208 210 208 215 221 243 227 192 246
283 280 257 232 250 263 101 255 291 344 75 58 119 144 28 284 217 185 182 194 193 183 176 161 174 187 196 194 203 237 211 243 210 203 188 210 210 195 198 215 205 215 202 239 211 232 230 230 265
229 253 250 231 214 137 95 301 131 96 82 53 33 47 60 45 124 182 170 180 188 201 200 183 166 189 186 195 209 216 231 237 227 209 209 245 196 212 175 187 210 220 221 224 216 227 233 210 229
241 276 281 253 274 92 130 107 26 68 84 57 62 86 70 75 88 75 118 185 173 210 201 223 202 187 198 207 219 220 227 226 229 205 238 222 225 194 161 182 198 212 212 219 218 222 235 242 221
233 246 359 313 200 239 62 134 203 106 86 68 60 83 65 71 72 69 64 94 151 199 201 209 234 202 204 218 219 219 222 235 259 262 199 234 246 255 216 221 184 223 232 221 212 217 214 239 234
274 337 255 320 350 287 155 290 87 84 39 54 55 39 118 80 61 67 49 39 58 178 187 200 202 209 217 218 211 220 214 225 236 243 233 255 251 258 236 225 235 214 225 230 221 219 220 228 215
192 233 241 285 319 318 290 107 77 56 45 7 338 97 14 80 106 114 106 87 42 48 39 332 177 236 217 214 209 226 223 218 223 237 229 251 246 238 243 226 233 231 229 224 217 215 215 220 216
298 308 297 272 240 255 315 335 75 58 53 39 338 101 70 345 103 139 100 80 86 54 31 43 349 7 311 303 210 211 199 219 238 245 240 262 264 251 243 229 234 231 232 216 222 213 211 220 207